sat.trackr.live / text

‹ back to catalog

STARLINK-35511

NORAD 66344 · 2025-253AB

PAYLOAD ACTIVE UNKNOWN

§ Identity

Operator
Country
US
Launch date
2025-11-06
Launch site
AFETR
Launch vehicle
Mass (kg)
RCS (m²)

Purposes: comms

External: N2YO · Heavens-Above · Gunter

§ Orbital elements

Epoch: 2026-05-25T00:39:33.393312Z

Period
94.27 min
Inclination
42.9960°
Eccentricity
0.0000831
Mean motion
15.27594156 rev/d
Perigee alt
482.4 km
Apogee alt
483.6 km
Semi-major
6,861.1 km
B*
7.6408e-4
RAAN
141.0124°
Arg perigee
164.8538°
Mean anomaly
195.2338°
Rev number
3,192

§ Raw data

STARLINK-355111 66344U 25253AB  26145.02746983  .00020832  00000+0  76408-3 0  99992 66344  42.9960 141.0124 0000831 164.8538 195.2338 15.27594156 31926

JSON: /api/v1/satellites/66344 · /tle

For live sub-satellite position, see the globe view (requires WebGL).

§ Visibility from observer

Set your observer location to see the next 7 days of passes ≥ 10°. The values pass through the URL so the page stays shareable.

No JS? Fill the form by hand. The geolocation button needs JavaScript.